Powrót do katalogu

WESTFORD NEEDLES

AktywnyPO
NORAD 18962·DEBRIS·🇺🇸 United States

Wystrzelony May 9, 1963 z Vandenberg Space Force Base

Loading…

Następne Przeloty (najbliższe 24 godziny)

TLE

ŚwieżeSource: Space-Track

Epoka: Sep 14, 2026, 09:55 UTC

1 18962U 63014DN  26257.41331166  .00003107  00000-0  45981+0 0  9994
2 18962  86.4731 139.9898 1424990 145.5598 224.6527  8.76859867210353

Śledź WESTFORD NEEDLES w czasie rzeczywistym z AllMySat

Download on the App Store